Providence, RI

5:25 AM EST on February 19, 2018 (GMT -0500)
Green State

Weather History for KPVD - January, 2012

Change the Weather History Date:

Tuesday, January 24, 2012

  Actual Average Record
Temperature  
Mean Temperature 49 °F 29 °F  
Max Temperature 56 °F 37 °F 65 °F (1967)
Min Temperature 41 °F 21 °F -9 °F (1907)
Degree Days  
Heating Degree Days 16 36  
Month to date heating degree days 769 860  
Since 1 July heating degree days 2404 2887  
Cooling Degree Days 0 0  
Month to date cooling degree days 0 0  
Year to date cooling degree days 0 0  
Moisture  
Dew Point 41 °F    
Average Humidity 76    
Maximum Humidity 100    
Minimum Humidity 51    
Precipitation  
Precipitation 0.02 in 0.13 in 1.68 in (1951)
Month to date precipitation 2.84 3.01  
Year to date precipitation 2.84 3.01  
Snow  
Snow 0.00 in 0.30 in 7.00 in (1908)
Month to date snowfall 10.7 6.9  
Since 1 July snowfall 13.0 17.1  
Snow Depth 0.00 in    
Sea Level Pressure  
Sea Level Pressure 29.94 in    
Wind  
Wind Speed 9 mph (WSW)    
Max Wind Speed 17 mph    
Max Gust Speed 24 mph    
Visibility 9 miles    
Events Rain    
T = Trace of Precipitation, MM = Missing Value Source: NWS Daily Summary

Daily Weather History Graph

Daily Weather History Graph

Search for Another Location

Airport or City:

Trip Planner

Search our weather history database for the weather conditions in past years. The results will help you decide how hot, cold, wet, or windy it might be!

Date:

Astronomy

Jan. 24, 2012 Rise Set
Actual Time 7:05 AM EST 4:50 PM EST
Civil Twilight 6:35 AM EST 5:20 PM EST
Nautical Twilight 6:01 AM EST 5:54 PM EST
Astronomical Twilight 5:28 AM EST 6:27 PM EST
Moon 7:31 AM EST (1/24) 6:41 PM EST (1/24)
Length of Visible Light 10h 45m
Length of Day
9h 45m
New Moon, 2% of the Moon is Illuminated
Jan 24
New Moon
Jan 30
First Quarter
Feb 7
Full
Feb 14
Last Quarter
Feb 21
New

Hourly Weather History & Observations

Time (EST) Temp. Windchill Dew Point Humidity Pressure Visibility Wind Dir Wind Speed Gust Speed Precip Events Conditions
12:51 AM 48.9 °F - 48.9 °F 100% 29.90 in 10.0 mi SSW 11.5 mph - 0.01 in   Overcast
1:51 AM 50.0 °F - 48.0 °F 93% 29.90 in 6.0 mi SW 11.5 mph - 0.01 in Rain Light Rain
2:51 AM 48.9 °F - 48.0 °F 97% 29.91 in 10.0 mi SW 9.2 mph - 0.00 in   Overcast
3:51 AM 48.2 °F - 46.4 °F 93% 29.90 in 8.0 mi SSW 8.1 mph - N/A   Overcast
4:51 AM 48.9 °F - 46.9 °F 93% 29.91 in 7.0 mi SW 6.9 mph - 0.00 in Rain Light Rain
4:59 AM 48.2 °F - 46.4 °F 93% 29.90 in 10.0 mi SW 9.2 mph - 0.00 in   Light Drizzle
5:43 AM 48.2 °F - 46.4 °F 93% 29.91 in 10.0 mi SSW 8.1 mph - 0.00 in   Overcast
5:51 AM 48.0 °F - 46.0 °F 93% 29.91 in 10.0 mi SSW 6.9 mph - 0.00 in   Overcast
6:51 AM 48.2 °F - 46.4 °F 93% 29.92 in 10.0 mi SSW 8.1 mph - N/A   Overcast
7:51 AM 48.0 °F - 45.0 °F 89% 29.93 in 7.0 mi SW 8.1 mph - N/A   Mostly Cloudy
8:51 AM 46.9 °F - 44.1 °F 90% 29.94 in 7.0 mi SSW 8.1 mph - N/A   Mostly Cloudy
9:51 AM 48.9 °F - 44.1 °F 83% 29.95 in 10.0 mi SW 11.5 mph - N/A   Scattered Clouds
10:51 AM 52.0 °F - 41.0 °F 66% 29.95 in 10.0 mi WSW 12.7 mph - N/A   Scattered Clouds
11:51 AM 53.1 °F - 41.0 °F 64% 29.93 in 10.0 mi WSW 11.5 mph - N/A   Scattered Clouds
12:51 PM 55.0 °F - 39.9 °F 57% 29.91 in 10.0 mi West 6.9 mph - N/A   Scattered Clouds
1:51 PM 55.0 °F - 39.0 °F 55% 29.90 in 10.0 mi SW 6.9 mph - N/A   Scattered Clouds
2:51 PM 55.9 °F - 37.9 °F 51% 29.90 in 10.0 mi West 9.2 mph - N/A   Mostly Cloudy
3:51 PM 54.0 °F - 37.0 °F 53% 29.91 in 10.0 mi WSW 8.1 mph - N/A   Mostly Cloudy
4:51 PM 50.0 °F - 37.9 °F 63% 29.94 in 10.0 mi WSW 8.1 mph - N/A   Mostly Cloudy
5:51 PM 46.9 °F - 37.9 °F 71% 29.96 in 10.0 mi WSW 6.9 mph - N/A   Mostly Cloudy
6:51 PM 46.0 °F 42.5 °F 37.9 °F 73% 29.98 in 10.0 mi West 6.9 mph - N/A   Mostly Cloudy
7:51 PM 44.1 °F 40.1 °F 35.1 °F 71% 30.00 in 10.0 mi West 6.9 mph - N/A   Scattered Clouds
8:51 PM 44.1 °F 40.8 °F 32.0 °F 63% 30.01 in 10.0 mi WNW 5.8 mph - N/A   Scattered Clouds
9:51 PM 42.1 °F 39.2 °F 30.9 °F 65% 30.04 in 10.0 mi West 4.6 mph - N/A   Partly Cloudy
10:51 PM 43.0 °F 38.2 °F 30.0 °F 60% 30.05 in 10.0 mi WNW 8.1 mph - N/A   Overcast
11:51 PM 42.1 °F 35.2 °F 30.0 °F 62% 30.06 in 10.0 mi WNW 12.7 mph - N/A   Overcast